| time (UTC) | temp F | wind direction | speed knots | gust knots | rain 1hr in | rain 24hr in | rain mn in | humidity % | barometer mb |
| 20260508203104 | 64 | 32 | 1.7 | 8.7 | 0.00 | 0.01 | 0.01 | 45 | 1007.3 |
| 20260508201558 | 64 | 360 | 0.9 | 8.7 | 0.00 | 0.01 | 0.01 | 47 | 1007.5 |
| 20260508194556 | 62 | 103 | 0.0 | 4.3 | 0.00 | 0.01 | 0.01 | 44 | 1007.9 |
| 20260508193107 | 62 | 89 | 0.0 | 2.6 | 0.00 | 0.01 | 0.01 | 47 | 1008.0 |
| 20260508191600 | 61 | 360 | 0.0 | 5.2 | 0.00 | 0.01 | 0.01 | 50 | 1008.2 |
| 20260508190054 | 63 | 360 | 1.7 | 7.8 | 0.00 | 0.01 | 0.01 | 50 | 1008.3 |
| 20260508184554 | 60 | 360 | 0.0 | 5.2 | 0.00 | 0.01 | 0.01 | 52 | 1008.4 |
| 20260508183051 | 61 | 360 | 0.9 | 4.3 | 0.00 | 0.01 | 0.01 | 51 | 1008.6 |
| 20260508181548 | 61 | 360 | 0.9 | 5.2 | 0.00 | 0.01 | 0.01 | 53 | 1008.8 |
| 20260508180046 | 59 | 59 | 0.9 | 7.0 | 0.00 | 0.01 | 0.01 | 54 | 1009.0 |
| 20260508174543 | 60 | 360 | 1.7 | 7.0 | 0.00 | 0.01 | 0.01 | 52 | 1009.1 |
| 20260508173041 | 59 | 40 | 0.9 | 4.3 | 0.00 | 0.01 | 0.01 | 54 | 1009.2 |
| 20260508171539 | 59 | 38 | 0.0 | 2.6 | 0.00 | 0.01 | 0.01 | 51 | 1009.2 |
| 20260508170037 | 59 | 57 | 0.9 | 5.2 | 0.00 | 0.01 | 0.01 | 53 | 1009.2 |
| 20260508164537 | 58 | 360 | 0.0 | 3.5 | 0.00 | 0.01 | 0.01 | 55 | 1009.3 |
| 20260508163032 | 57 | 86 | 0.0 | 3.5 | 0.00 | 0.01 | 0.01 | 56 | 1009.3 |
| 20260508161528 | 57 | 360 | 0.9 | 3.5 | 0.00 | 0.01 | 0.01 | 58 | 1009.4 |
| 20260508160031 | 56 | 360 | 0.0 | 3.5 | 0.00 | 0.01 | 0.01 | 62 | 1009.4 |
| 20260508154527 | 55 | 360 | 0.9 | 5.2 | 0.00 | 0.01 | 0.01 | 62 | 1009.3 |
| 20260508153024 | 56 | 360 | 0.9 | 7.0 | 0.00 | 0.01 | 0.01 | 65 | 1009.3 |
| 20260508151524 | 56 | 360 | 0.9 | 3.5 | 0.00 | 0.01 | 0.01 | 62 | 1009.2 |
| 20260508150018 | 54 | 360 | 0.9 | 5.2 | 0.00 | 0.01 | 0.01 | 66 | 1009.1 |
| 20260508144518 | 54 | 147 | 0.0 | 3.5 | 0.00 | 0.01 | 0.01 | 64 | 1009.4 |
| 20260508143015 | 54 | 182 | 0.0 | 0.9 | 0.00 | 0.01 | 0.01 | 66 | 1009.3 |
| 20260508141510 | 53 | 162 | 0.0 | 2.6 | 0.00 | 0.01 | 0.01 | 72 | 1009.6 |
| 20260508140005 | 51 | 205 | 0.0 | 3.5 | 0.00 | 0.01 | 0.01 | 77 | 1009.6 |
| 20260508134505 | 50 | 261 | 0.0 | 0.0 | 0.00 | 0.01 | 0.01 | 85 | 1010.0 |
| 20260508133112 | 46 | 261 | 0.0 | 0.0 | 0.00 | 0.01 | 0.01 | 85 | 1010.1 |
| 20260508131602 | 45 | 261 | 0.0 | 0.0 | 0.00 | 0.01 | 0.01 | 84 | 1010.1 |
| 20260508130111 | 45 | 261 | 0.0 | 0.0 | 0.00 | 0.01 | 0.01 | 84 | 1010.1 |
| 20260508124558 | 45 | 261 | 0.0 | 0.0 | 0.00 | 0.01 | 0.01 | 86 | 1010.3 |
| 20260508123105 | 44 | 360 | 0.0 | 1.7 | 0.00 | 0.01 | 0.01 | 86 | 1010.1 |
| 20260508121602 | 43 | 285 | 0.0 | 2.6 | 0.00 | 0.01 | 0.01 | 88 | 1010.4 |
| 20260508120049 | 42 | 254 | 0.0 | 0.0 | 0.00 | 0.01 | 0.01 | 88 | 1009.7 |
| 20260508114546 | 42 | 233 | 0.0 | 0.9 | 0.00 | 0.01 | 0.01 | 88 | 1008.9 |
| 20260508113046 | 41 | 360 | 0.0 | 0.9 | 0.00 | 0.01 | 0.01 | 88 | 1008.9 |
| 20260508111544 | 41 | 15 | 0.0 | 0.0 | 0.01 | 0.01 | 0.01 | 87 | 1009.0 |
| 20260508110042 | 41 | 15 | 0.0 | 0.0 | 0.01 | 0.01 | 0.01 | 87 | 1008.8 |
| 20260508104611 | 41 | 15 | 0.0 | 0.0 | 0.01 | 0.01 | 0.01 | 87 | 1008.6 |
| 20260508103044 | 42 | 15 | 0.0 | 0.0 | 0.01 | 0.01 | 0.01 | 86 | 1008.4 |
| 20260508101541 | 42 | 15 | 0.0 | 0.9 | 0.00 | 0.00 | 0.00 | 86 | 1008.1 |
| 20260508100036 | 43 | 161 | 0.0 | 0.0 | 0.00 | 0.00 | 0.00 | 86 | 1007.4 |
| 20260508094543 | 43 | 160 | 0.0 | 0.0 | 0.00 | 0.00 | 0.00 | 86 | 1007.5 |
| 20260508093034 | 43 | 149 | 0.0 | 0.0 | 0.00 | 0.00 | 0.00 | 86 | 1007.4 |
| 20260508091532 | 43 | 149 | 0.0 | 0.0 | 0.00 | 0.00 | 0.00 | 86 | 1007.4 |
| 20260508084527 | 44 | 360 | 0.0 | 0.9 | 0.00 | 0.00 | 0.00 | 87 | 1007.9 |
| 20260508083024 | 45 | 143 | 0.0 | 0.0 | 0.00 | 0.00 | 0.00 | 87 | 1008.0 |
| 20260508081523 | 45 | 109 | 0.0 | 0.0 | 0.00 | 0.00 | 0.00 | 87 | 1008.1 |
| 20260508080026 | 46 | 360 | 0.0 | 0.0 | 0.00 | 0.00 | 0.00 | 86 | 1008.4 |
| 20260508074520 | 46 | 360 | 0.0 | 0.0 | 0.00 | 0.00 | 0.00 | 85 | 1008.7 |
| 20260508073018 | 46 | 108 | 0.0 | 0.0 | 0.00 | 0.00 | 0.00 | 84 | 1008.8 |
| 20260508071517 | 47 | 108 | 0.0 | 0.0 | 0.00 | 0.00 | 0.00 | 83 | 1008.7 |
| 20260508070020 | 47 | 107 | 0.0 | 0.0 | 0.00 | 0.00 | 0.00 | 82 | 1008.7 |
| 20260508064509 | 48 | 360 | 0.0 | 0.0 | 0.00 | 0.00 | 0.00 | 80 | 1008.4 |
| 20260508063006 | 49 | 360 | 0.0 | 0.0 | 0.00 | 0.00 | 0.00 | 79 | 1008.4 |
| 20260508061507 | 50 | 108 | 0.0 | 0.0 | 0.00 | 0.00 | 0.00 | 77 | 1008.3 |
| 20260508060001 | 51 | 107 | 0.0 | 0.9 | 0.00 | 0.00 | 0.00 | 73 | 1008.1 |
| 20260508054557 | 52 | 74 | 0.0 | 1.7 | 0.00 | 0.00 | 0.00 | 69 | 1008.5 |
| 20260508053105 | 53 | 360 | 0.0 | 3.5 | 0.00 | 0.00 | 0.00 | 64 | 1009.5 |
| 20260508051555 | 53 | 273 | 0.0 | 1.7 | 0.00 | 0.00 | 0.00 | 66 | 1008.7 |
| 20260508050059 | 53 | 23 | 0.0 | 0.0 | 0.00 | 0.00 | 0.00 | 65 | 1008.4 |
| 20260508044551 | 54 | 360 | 0.0 | 0.0 | 0.00 | 0.00 | 0.00 | 63 | 1008.1 |
| 20260508043100 | 54 | 360 | 0.0 | 0.9 | 0.00 | 0.00 | 0.00 | 63 | 1008.3 |
| 20260508041547 | 54 | 37 | 0.0 | 4.3 | 0.00 | 0.00 | 0.00 | 61 | 1008.5 |
| 20260508040044 | 56 | 360 | 0.0 | 7.8 | 0.00 | 0.00 | 0.00 | 56 | 1009.2 |
| 20260508034540 | 57 | 360 | 0.9 | 4.3 | 0.00 | 0.00 | 0.00 | 50 | 1008.7 |
| 20260508033037 | 58 | 124 | 0.0 | 0.0 | 0.00 | 0.00 | 0.00 | 44 | 1008.2 |
| 20260508031535 | 59 | 162 | 0.0 | 2.6 | 0.00 | 0.00 | 0.00 | 43 | 1008.3 |
| 20260508030048 | 59 | 259 | 0.0 | 3.5 | 0.00 | 0.00 | 0.00 | 43 | 1008.0 |
| 20260508024536 | 59 | 253 | 0.0 | 3.5 | 0.00 | 0.00 | 0.00 | 43 | 1008.0 |
| 20260508023037 | 60 | 160 | 0.0 | 3.5 | 0.00 | 0.00 | 0.00 | 43 | 1008.1 |
| 20260508021537 | 59 | 360 | 0.0 | 2.6 | 0.00 | 0.00 | 0.00 | 47 | 1008.0 |
| 20260508020032 | 59 | 360 | 0.0 | 1.7 | 0.00 | 0.00 | 0.00 | 47 | 1008.0 |
| 20260508014531 | 60 | 90 | 0.0 | 2.6 | 0.00 | 0.00 | 0.00 | 47 | 1007.6 |
| 20260508013030 | 61 | 94 | 0.0 | 2.6 | 0.00 | 0.00 | 0.00 | 43 | 1007.7 |
| 20260508011529 | 63 | 347 | 0.0 | 3.5 | 0.00 | 0.00 | 0.00 | 37 | 1007.9 |
| 20260508010028 | 64 | 351 | 0.0 | 0.9 | 0.00 | 0.00 | 0.00 | 31 | 1007.4 |
| 20260508004528 | 65 | 172 | 0.0 | 0.0 | 0.00 | 0.00 | 0.00 | 29 | 1007.0 |
| 20260508003027 | 66 | 360 | 0.0 | 1.7 | 0.00 | 0.00 | 0.00 | 28 | 1007.0 |
| 20260508001525 | 67 | 360 | 0.0 | 2.6 | 0.00 | 0.00 | 0.00 | 27 | 1007.0 |
| 20260508000024 | 67 | 187 | 0.0 | 0.0 | 0.00 | 0.00 | 0.00 | 27 | 1007.3 |
| 20260507234529 | 69 | 219 | 0.0 | 1.7 | 0.00 | 0.00 | 0.00 | 26 | 1007.3 |
| 20260507233025 | 70 | 246 | 0.0 | 2.6 | 0.00 | 0.00 | 0.00 | 23 | 1007.3 |
| 20260507231524 | 68 | 197 | 0.0 | 1.7 | 0.00 | 0.00 | 0.00 | 26 | 1007.6 |
| 20260507230022 | 70 | 215 | 0.0 | 2.6 | 0.00 | 0.00 | 0.00 | 24 | 1007.8 |
| 20260507224518 | 71 | 232 | 0.0 | 3.5 | 0.00 | 0.00 | 0.00 | 24 | 1007.9 |
| 20260507223016 | 71 | 237 | 0.0 | 2.6 | 0.00 | 0.00 | 0.00 | 24 | 1008.1 |
| 20260507221513 | 71 | 296 | 0.0 | 3.5 | 0.00 | 0.00 | 0.00 | 26 | 1008.3 |
| 20260507220010 | 71 | 187 | 0.0 | 0.0 | 0.00 | 0.00 | 0.00 | 23 | 1008.7 |
| 20260507214507 | 69 | 360 | 0.0 | 3.5 | 0.00 | 0.00 | 0.00 | 27 | 1009.3 |
| 20260507213004 | 70 | 265 | 0.0 | 2.6 | 0.00 | 0.00 | 0.00 | 26 | 1009.7 |
| 20260507211502 | 69 | 279 | 0.0 | 7.0 | 0.00 | 0.00 | 0.00 | 26 | 1010.2 |
| 20260507210059 | 69 | 360 | 0.0 | 5.2 | 0.00 | 0.00 | 0.00 | 27 | 1010.6 |
| 20260507204601 | 68 | 360 | 0.0 | 7.8 | 0.00 | 0.09 | 0.00 | 26 | 1010.9 |